Location: �couen
(49.0206°N, 2.3831°E)
Time: 22:30:09
(UTC+00:00)

Cosmos 1758 - Pass Details

Date: 06 June 2022
Orbit: 538 x 557 km, 82.5° (Epoch: 01 July)

Event Time Altitude Azimuth Distance (km) Brightness Sun altitude
Rises 22:57:45 0° 341° (NNW) 2,726 8.6 -17.3°
Reaches altitude 10° 23:00:05 10° 331° (NNW) 1,831 7.1 -17.4°
Maximum altitude 23:03:36 30° 269° (W) 1,006 4.7 -17.5°
Enters shadow 23:05:25 21° 226° (SW) 1,273 4.9 -17.6°
